This demonstration page uses our WeatherBlox Daily Observations layout. Learn more.

Left ArrowRight Arrow

41.55636, -103.73856

Hourly Observations for June 30, 2022

Temp ( °F °C ) Dew Point ( °F °C ) Humidity (%) Winds ( mph kmh ) Pressure ( in mb ) Visibility ( mi km ) Precip ( " mm )
12:58 am 00:58 Clear 71 21.6 45 7.4 40 40 SW 22 35 29.83 1010 10 16 0.00 0.00
1:58 am 01:58 Clear 71 21.8 45 7.2 39 39 SW 22 35 29.84 1010 10 16 0.00 0.00
2:58 am 02:58 Clear 73 22.8 45 7.3 37 37 WSW 24 39 29.84 1011 10 16 0.00 0.00
3:58 am 03:58 Clear 71 21.6 45 7.4 40 40 W 14 22 29.85 1011 10 16 0.00 0.00
4:58 am 04:58 Clear 65 18.6 46 7.7 49 49 W 8 13 29.86 1011 10 16 0.00 0.00
5:58 am 05:58 Sunny 62 16.4 45 7.3 55 55 W 7 11 29.87 1012 10 16 0.00 0.00
6:58 am 06:58 Mostly Sunny 63 17.3 46 7.9 54 54 NW 5 7 29.88 1012 10 16 0.00 0.00
7:58 am 07:58 Sunny 71 21.9 45 7.3 39 39 WNW 9 15 29.90 1012 10 16 0.00 0.00
8:58 am 08:58 Partly Cloudy 74 23.5 45 7.1 35 35 NW 17 28 29.89 1012 10 16 0.00 0.00
9:58 am 09:58 Partly Cloudy 74 23.2 47 8.1 38 38 NW 9 15 29.93 1013 10 16 0.00 0.00
10:58 am 10:58 Mostly Sunny 75 23.9 46 7.9 36 36 NW 9 15 29.93 1013 10 16 0.00 0.00
11:58 am 11:58 Sunny 77 25.1 47 8.1 34 34 N 8 13 29.93 1014 10 16 0.00 0.00
12:58 pm 12:58 Mostly Sunny 81 27.4 45 7.3 28 28 NNE 12 19 29.91 1013 10 16 0.00 0.00
1:58 pm 13:58 Sunny 82 27.7 46 7.5 28 28 NNE 8 13 29.90 1012 10 16 0.00 0.00
2:58 pm 14:58 Sunny 84 29 44 6.4 24 24 N 5 7 29.88 1012 10 16 0.00 0.00
3:58 pm 15:58 Mostly Cloudy 87 30.6 46 7.7 24 24 E 17 28 29.86 1011 10 16 0.00 0.00
4:58 pm 16:58 Partly Cloudy 85 29.3 46 7.8 26 26 E 12 19 29.87 1012 10 16 0.00 0.00
5:58 pm 17:58 Mostly Cloudy 82 28 46 7.8 28 28 E 12 19 29.88 1012 10 16 0.00 0.00
6:58 pm 18:58 Partly Cloudy 80 26.6 46 7.6 30 30 E 17 28 29.88 1012 10 16 0.00 0.00
7:58 pm 19:58 Cloudy with Rain 61 16.1 56 13.4 84 84 NW 38 61 30.01 1016 10 16 0.01 0.25
8:58 pm 20:58 Cloudy with Light Rain 59 14.9 54 12 83 83 N 25 41 30.03 1017 10 16 0.10 2.54
9:58 pm 21:58 Cloudy with Light Rain 59 14.8 56 13.2 90 90 NNE 16 26 30.06 1018 10 16 0.02 0.51
10:58 pm 22:58 Mostly Cloudy 59 14.8 54 12.3 85 85 E 15 24 30.04 1017 10 16 0.00 0.00
11:58 pm 23:58 Mostly Cloudy 58 14.3 53 11.6 84 84 E 13 20 30.03 1017 10 16 0.00 0.00

Powered by AerisWeather